STARLINK-1400, 45700

Orbit data source: Space-Track

STARLINK-1400, 45700 is a payload satellite owned by SpaceX/Seattle (US) in LEO that was launched on Thu, 04 Jun 2020 UTC via an FALCON 9 launch vehicle from the Air Force Eastern Test Range (AFETR). Payload-class satellites include a variety of spacecraft equipped with specific instruments for various scientific and technological missions. These include communications satellites like Starlink; space stations such as the ISS; scientific satellites like the Hubble; Earth observation satellites from companies like Planet Labs, Umbra, and HawkEye 360; GPS; miniature CubeSats for education and research; and military/defense satellites.

Loading next visibility...
Identifier
45700, 2020-035AV
Orbit
LEO
Last TLE update
17 hours ago
Origin
Manufacturer
SpaceX/Seattle
Mission
Operational Commercial Communications
Bus & Motor
STARLINK, Unknown motor
Mass
260 kg wet, ~248 kg dry
Launch date (UTC)
2020-06-04 (5 years ago)
Launch vehicle
FALCON 9
Launch site
Air Force Eastern Test Range (AFETR)
Object type
Payload
Rocket body
Debris
Shape & HBR
Box + 1 Pan, 8.86 m
Radar Cross Section
13.562 m², Large (>1 m²)

Expand to show TLE details & history

TLE from 17 hours ago
0 STARLINK-1400
1 45700U 20035AV  25192.27500992 -.00000275  00000-0  46419-6 0  9994
2 45700  53.0546  40.3709 0001440  89.8040 270.3114 15.06395830282765
Epoch: 2025-07-11T06:36Z
TLE epoch observation values (Epoch: 2025-07-11T06:36:00.857Z)
Latitude
-0°
Longitude
11.93805°
Altitude
548.098 km
Speed
7.589 km/s
True Right ascension
02h 41m 29s
True Declination
0° 00' 00"
Sunlit
Object was in daylight at epoch
Visualization orbit readout
Latitude
-37.39448°
Longitude
-136.35943°
Altitude
560.047 km
Speed
7.581 km/s
Apparent Right ascension
20h 02m 12s
Apparent Declination
-52° 43' 15"
Sunlit
Object is in full shadow
Visualization observer readout
Local Sidereal Time
11:52:12
Azimuth
128.163° SE
Elevation
-49.478°
Doppler factor
1
Orbital elements
Apogee altitude
548.492 km
Perigee altitude
546.498 km
Semi-major axis
6,925.632 km
Eccentricity
0.00014
Inclination
53.0546°
RAAN
40.3709°
Arg. of periapsis
89.804°
True anomaly
Unknown
Mean anomaly
270.3114°
Eccentric anomaly
Unknown
Mean motion
3.76577 °/min
Orbital period
95.6 mins
BSTAR
4.6419e-7
Loading maneuver chart data...
Loading SW <> Apogee altitude chart data...

STARLINK-1400 Visibility forecast

Observer location: undefined°, undefined°

Span
Click to sort rows by Start time (UTC) header in descending order
Start Az.
Max El. time (UTC)
Max El. Az.
Max El.
End time (UTC)
End Az.
5 mins2025-07-12 00:40:11.187Z279.193° WNW2025-07-12 00:43:11.187Z227.998° WSW20.303°2025-07-12 00:45:11.187Z191.574° SSW
6 mins2025-07-12 16:13:11.187Z218.176° SW2025-07-12 16:16:11.187Z111.646° ESE42.929°2025-07-12 16:19:11.187Z55.697° ENE
4 mins2025-07-12 17:54:11.187Z301.195° NW2025-07-12 17:56:11.187Z344.42° N21.878°2025-07-12 17:58:11.187Z20.801° NNE
4 mins2025-07-12 21:16:11.187Z356.101° N2025-07-12 21:17:11.187Z14.687° NNE17.692°2025-07-12 21:20:11.187Z63.256° ENE
6 mins2025-07-12 22:55:11.187Z318.699° NNW2025-07-12 22:57:11.187Z2.535° NNE42.279°2025-07-12 23:01:11.187Z121.483° SE
|